DELTA 1 DEB, 7021

Orbit data source: Space-Track

DELTA 1 DEB, 7021 is space debris in SSO originally from a launch on Tue, 06 Nov 1973 UTC launched from the Air Force Western Test Range (AFWTR). Debris objects in space refer to the collection of defunct objects orbiting the Earth. Examples of debris include non-operational satellites, rocket bodies, and fragments generated from explosions, collisions, or faulty payload assembly.

Loading next visibility...
Identifier
7021, 1973-086M
Orbit
SSO
Country
Flag of USUS
Related business
Manufacturer
Unknown
Mission
Spacecraft
Bus & Motor
Unknown
Mass
Unknown
Launch date (UTC)
1973-11-06 (53 years ago)
Launch vehicle
Unknown
Launch site
Air Force Western Test Range (AFWTR)
Object type
Payload
Rocket body
Debris
Shape & HBR
Unknown shape, 0.2 m
Radar Cross Section
Medium (>0.1 m² and <1 m²)

Expand to show TLE details & history
Last TLE update: 19 hours ago

TLE from 19 hours ago
0 DELTA 1 DEB
1  7021U 73086M   26209.06291529  .00000598  00000-0  49167-2 0  9998
2  7021 101.6834 246.2126 0190274 146.3403 272.6258 12.33151179354324
Epoch: 2026-07-28T01:30Z
TLE epoch observation values (Epoch: 2026-07-28T01:30:35.881Z)
Latitude
55.10827°
Longitude
-99.33622°
Altitude
1,540.652 km
Speed
7.103 km/s
True Right ascension
15h 16m 12s
True Declination
54° 57' 46"
Sunlit
Object was in daylight at epoch
Visualization orbit readout
Latitude
Unknown
Longitude
Unknown
Altitude
Unknown
Speed
Unknown
Apparent Right ascension
Unknown
Apparent Declination
Unknown
Sunlit
N/A
Visualization observer readout
Local Sidereal Time
09:34:45
Azimuth
Unknown
Elevation
Unknown
Doppler factor
Unknown
Orbital elements
Apogee altitude
1,683.869 km
Perigee altitude
1,382.799 km
Semi-major axis
7,911.471 km
Eccentricity
0.01903
Inclination
101.6834°
RAAN
246.2126°
Arg. of periapsis
146.3403°
True anomaly
270.44586°
Mean anomaly
272.6258°
Eccentric anomaly
271.536°
Mean motion
3.0843 °/min
Orbital period
116.72 mins
BSTAR
0.0049167
Loading maneuver chart data...
Computing Atmospheric mass density...
Loading historical data...
Loading historical data...
Loading historical data...
Loading historical data...
Loading historical data...
Loading historical data...
Loading historical data...

Documentation

Showing up to 5 results
|